Weather History for Fort Rucker / Ozark, AL

Change the Weather History Date:

Saturday, December 15, 2012

  Actual Average (KDHN) Record (KDHN)
Temperature  
Mean Temperature 58 °F 51 °F  
Max Temperature 68 °F 62 °F 77 °F (1948)
Min Temperature 48 °F 40 °F 21 °F (1944)
Degree Days  
Heating Degree Days 7 14  
Month to date heating degree days 190  
Since 1 July heating degree days 467  
Growing Degree Days 8 (Base 50)    
Moisture  
Dew Point 50 °F    
Average Humidity 80    
Maximum Humidity 93    
Minimum Humidity 56    
Precipitation  
Precipitation 0.00 in 0.14 in 2.59 in (2007)
Month to date precipitation 2.57  
Year to date precipitation 52.15  
Sea Level Pressure  
Sea Level Pressure 30.11 in    
Wind  
Wind Speed 1 mph (SSW)    
Max Wind Speed 6 mph    
Max Gust Speed -    
Visibility 10 miles    
Events      
T = Trace of Precipitation, MM = Missing Value Source: NWS Daily Summary

Daily Weather History Graph

Daily Weather History Graph

Search for Another Location

Airport:

Trip Planner

Search our weather history database for the weather conditions in past years. The results will help you decide how hot, cold, wet, or windy it might be!

Date:

Astronomy

Dec. 15, 2012 Rise Set
Actual Time 6:34 AM CST 4:42 PM CST
Civil Twilight 6:08 AM CST 5:08 PM CST
Nautical Twilight 5:37 AM CST 5:39 PM CST
Astronomical Twilight 5:08 AM CST 6:08 PM CST
Moon 8:33 AM CST (12/15) 7:37 PM CST (12/15)
Length of Visible Light 11h 00m
Length of Day
10h 07m
Waxing Crescent, 8% of the Moon is Illuminated
Dec 15
Waxing Crescent
Dec 19
First Quarter
Dec 28
Full
Jan 4
Last Quarter
Jan 11
New

Hourly Weather History & Observations

Time (CST) Temp. Dew Point Humidity Pressure Visibility Wind Dir Wind Speed Gust Speed Precip Events Conditions
12:53 AM 48.0 °F 45.0 °F 89% 30.15 in 9.0 mi Calm Calm - N/A   Clear
1:53 AM 48.0 °F 46.0 °F 93% 30.15 in 9.0 mi Calm Calm - N/A   Clear
2:53 AM 48.0 °F 46.0 °F 93% 30.16 in 10.0 mi Calm Calm - N/A   Clear
3:53 AM 48.0 °F 45.0 °F 89% 30.14 in 9.0 mi Calm Calm - N/A   Partly Cloudy
4:53 AM 48.9 °F 46.0 °F 90% 30.15 in 10.0 mi NW 4.6 mph - N/A   Clear
5:53 AM 48.0 °F 46.0 °F 93% 30.15 in 9.0 mi Calm Calm - N/A   Partly Cloudy
6:53 AM 48.9 °F 46.0 °F 90% 30.17 in 9.0 mi Calm Calm - N/A   Clear
7:53 AM 51.1 °F 46.9 °F 86% 30.17 in 10.0 mi Calm Calm - N/A   Scattered Clouds
8:53 AM 53.1 °F 48.0 °F 83% 30.19 in 10.0 mi Calm Calm - N/A   Clear
9:53 AM 55.9 °F 48.9 °F 77% 30.19 in 10.0 mi Calm Calm - N/A   Clear
10:53 AM 61.0 °F 48.0 °F 62% 30.17 in 10.0 mi Variable 3.5 mph - N/A   Scattered Clouds
11:53 AM 64.9 °F 50.0 °F 58% 30.13 in 10.0 mi Variable 5.8 mph - N/A   Scattered Clouds
12:53 PM 66.0 °F 51.1 °F 59% 30.10 in 10.0 mi Variable 4.6 mph - N/A   Partly Cloudy
1:53 PM 66.9 °F 52.0 °F 59% 30.08 in 10.0 mi Variable 5.8 mph - N/A   Clear
2:53 PM 68.0 °F 52.0 °F 56% 30.07 in 10.0 mi South 4.6 mph - N/A   Clear
3:53 PM 66.0 °F 53.1 °F 63% 30.07 in 10.0 mi SSE 4.6 mph - N/A   Clear
4:53 PM 61.0 °F 53.1 °F 75% 30.06 in 10.0 mi Calm Calm - N/A   Clear
5:53 PM 57.0 °F 53.1 °F 87% 30.06 in 10.0 mi Calm Calm - N/A   Clear
6:53 PM 55.9 °F 52.0 °F 87% 30.07 in 10.0 mi Calm Calm - N/A   Mostly Cloudy
7:53 PM 57.9 °F 53.1 °F 84% 30.05 in 10.0 mi Calm Calm - N/A   Mostly Cloudy
8:53 PM 57.9 °F 53.1 °F 84% 30.08 in 10.0 mi Calm Calm - N/A   Partly Cloudy
9:53 PM 55.9 °F 52.0 °F 87% 30.07 in 10.0 mi Calm Calm - N/A   Mostly Cloudy
10:53 PM 55.9 °F 53.1 °F 90% 30.08 in 10.0 mi Calm Calm - N/A   Overcast
11:53 PM 54.0 °F 52.0 °F 93% 30.04 in 10.0 mi Calm Calm - N/A   Overcast